星链-5942 (STARLINK-5942 )

导读 | 星芒AI

STARLINK-5942 是 SpaceX Starlink 卫星互联网项目中的第 5942 颗卫星,属于“星链”计划的低轨卫星群之一。该卫星由 SpaceX 研制并发射,旨在为全球用户提供高速、低延迟的宽带互联网服务。它运行在约 550 公里的近地轨道上,采用先进通信技术,支持全球范围内的网络连接,尤其服务于偏远和网络基础设施不足的地区。STARLINK-5942 的部署有助于提升 Starlink 网络的覆盖密度和稳定性,推动全球互联网普及。

基本信息
目录编号:
56014
目录名称:
STARLINK-5942
国际标识:
2023-042AE
轨道中心:
EARTH
卫星名称:
星链-5942
卫星全名:
星链-5942 (STARLINK-5942 )
卫星状态:
在轨 (已飞行956 天)
发射日期:
2023-03-24 UTC
国别 :
美国 (US)
星等 :
--
轨道信息
数据来源 国际轨道数据
星历时间: 2025-11-03T23:11:27+0800
16小时前
查看轨道信息
半长轴: 6937.219km
偏心率: 0.0001291
轨道倾角: 43.005°
近地点辐角 261.368°
升交点赤经 8.442°
平近点角 98.702°
近地点: 558.188km
远地点: 559.98km
周期: 95.838分钟
每日圈数: 15.025354
详细信息
固有亮度:
5
最大亮度:
2.5
卫星平台:
Starlink v1.5
覆盖范围:
全球
运营商:
太空探索技术公司
运营商所在国:
美国
制造商(研发单位):
太空探索技术公司
制造商所在国:
美国
使用方式:
暂无
卫星简介
星链(Starlink)计划是由太空探索技术公司(SpaceX)提出的一个巨型低轨卫星互联网星座项目,计划在2019年至2024年间在太空搭建由约1.2万颗卫星组成的“星链”网络,其中1584颗将部署在地球上空550千米处的近地轨道,并从2020年开始工作。该卫星仍在工作。
2D轨道图
3D轨道图
轨道高度分析图
轨道倾角分析图
轨道综合分析图
查看轨道综合分析图